Home   Weather   Chattanooga   Past weeks

Flag for USA Past Weather in Chattanooga, Tennessee, USA — Yesterday and Last 2 Weeks

Now
87 °F

Thundershowers. Broken clouds.


Feels Like: 95 °F
Forecast: 74 / 89 °F
Wind: 8 mph from Southeast

Location: Lovell Field

Current Time: Jul 27, 2017 at 12:58:34 pm

Latest Report: Jul 27, 2017 at 12:34 pm


Visibility: 10 mi

Pressure: 30.04 "Hg

Humidity: 65%

Dew Point: 74 °F

Location of ChattanoogaLocation

Past Weather in Chattanooga — Graph

°F

Chattanooga Temperature Yesterday

Maximum temperature yesterday: 94 °F (at 2:53 pm)
Minimum temperature yesterday: 73 °F (at 5:53 am)
Average temperature yesterday: 84 °F

High & Low Weather Summary for the Past Weeks

 TemperatureHumidityPressure
High96 °F (Jul 21, 4:53 pm)97% (Jul 15, 4:53 am)30.20 "Hg (Jul 15, 4:53 am)
Low71 °F (Jul 18, 6:53 am)32% (Jul 21, 5:53 pm)29.84 "Hg (Jul 23, 5:53 pm)
Average82 °F72%30.03 "Hg
* Reported Jul 12 10:53 am — Jul 27 10:53 am, Chattanooga. Weather by CustomWeather, © 2017

Note: Actual official high and low records may vary slightly from our data, if they occured in-between our weather recording intervals... More about our weather records

Advertising

Chattanooga Weather History for the Previous 24 Hours

Scroll right to see more
 ConditionsComfort  
Time TempWeatherWind HumidityBarometerVisibility
10:53 am
Thu, Jul 27
83 °FBroken clouds.7 mph70%30.05 "Hg10 mi
9:53 am80 °FScattered clouds.6 mph74%30.05 "Hg10 mi
8:53 am78 °FScattered clouds.3 mph79%30.05 "Hg10 mi
7:53 am76 °FBroken clouds.No wind85%30.05 "Hg10 mi
6:53 am75 °FBroken clouds.No wind88%30.04 "Hg10 mi
5:53 am75 °FPartly cloudy.No wind85%30.03 "Hg10 mi
4:53 am76 °FClear.5 mph82%30.03 "Hg10 mi
3:53 am80 °FPassing clouds.3 mph74%30.02 "Hg10 mi
2:53 am81 °FPassing clouds.3 mph72%30.02 "Hg10 mi
12:53 am82 °FClear.6 mph74%30.04 "Hg10 mi
11:53 pm
Wed, Jul 26
83 °FPassing clouds.No wind77%30.04 "Hg10 mi
10:53 pm85 °FPassing clouds.No wind70%30.04 "Hg10 mi
9:53 pm84 °FPassing clouds.No wind70%30.03 "Hg10 mi
8:53 pm90 °FPassing clouds.No wind52%30.02 "Hg10 mi
7:53 pm92 °FPassing clouds.3 mph51%30.01 "Hg10 mi
6:53 pm94 °FPassing clouds.3 mph43%30.01 "Hg10 mi
5:53 pm94 °FScattered clouds.6 mph44%30.01 "Hg10 mi
4:53 pm94 °FScattered clouds.6 mph46%30.03 "Hg10 mi
3:53 pm93 °FBroken clouds.9 mph47%30.05 "Hg10 mi
2:53 pm94 °FScattered clouds.3 mph44%30.06 "Hg10 mi
1:53 pm91 °FScattered clouds.6 mph49%30.08 "Hg10 mi
12:53 pm90 °FScattered clouds.5 mph48%30.10 "Hg10 mi
Weather by CustomWeather, © 2017

See weather overviewHow to use our weather pages